This is the latest recevied weather packets stored in our database for station/object W9KHP-1. If no packets are shown the sender has not sent any weather packets the latest 10 day(s).
| Time | Temp. | Humidity | Pressure | Rain* | Wind** | Luminosity | Snow |
|---|---|---|---|---|---|---|---|
| 1778200495 | 12.78° C | 61% | 1017.2 hPa | 0 mm | - | 6 W/m² | - |
| 1778200192 | 12.78° C | 63% | 1017.3 hPa | 0 mm | - | 8 W/m² | - |
| 1778199888 | 13.33° C | 61% | 1017.3 hPa | 0 mm | - | 10 W/m² | - |
| 1778199585 | 13.33° C | 62% | 1017.3 hPa | 0 mm | - | 12 W/m² | - |
| 1778199281 | 13.89° C | 58% | 1017.2 hPa | 0 mm | - | 14 W/m² | - |
| 1778198978 | 13.89° C | 57% | 1017.1 hPa | 0 mm | - | 16 W/m² | - |
| 1778198673 | 14.44° C | 53% | 1017.2 hPa | 0 mm | - | 17 W/m² | - |
| 1778198371 | 15° C | 50% | 1017.1 hPa | 0 mm | - | 19 W/m² | - |
| 1778198067 | 15° C | 49% | 1016.8 hPa | 0 mm | - | 21 W/m² | - |
| 1778197765 | 15° C | 48% | 1017.1 hPa | 0 mm | - | 22 W/m² | - |
| 1778197461 | 15° C | 50% | 1017 hPa | 0 mm | - | 24 W/m² | - |
| 1778197158 | 15.56° C | 44% | 1017.1 hPa | 0 mm | - | 25 W/m² | - |
| 1778196855 | 15.56° C | 44% | 1017 hPa | 0 mm | - | 26 W/m² | - |
| 1778196554 | 15.56° C | 42% | 1017 hPa | 0 mm | - | 28 W/m² | - |
| 1778196249 | 16.11° C | 44% | 1017 hPa | 0 mm | - | 29 W/m² | - |
| 1778195947 | 16.11° C | 42% | 1017.1 hPa | 0 mm | - | 30 W/m² | - |
| 1778195643 | 16.11° C | 50% | 1017.1 hPa | 0 mm | - | 31 W/m² | - |
| 1778195340 | 16.11° C | 42% | 1017.1 hPa | 0 mm | - | 32 W/m² | - |
| 1778195037 | 16.11° C | 40% | 1017.1 hPa | 0 mm | - | 33 W/m² | - |
| 1778194736 | 16.11° C | 45% | 1017.1 hPa | 0 mm | - | 35 W/m² | - |
| 1778194433 | 16.67° C | 42% | 1017 hPa | 0 mm | - | 36 W/m² | - |
| 1778194129 | 16.67° C | 41% | 1017 hPa | 0 mm | - | 37 W/m² | - |
| 1778193826 | 16.11° C | 41% | 1017.2 hPa | 0 mm | - | 38 W/m² | - |
| 1778193521 | 16.67° C | 41% | 1017.4 hPa | 0 mm | - | 39 W/m² | - |
| 1778193218 | 16.67° C | 39% | 1017.5 hPa | 0 mm | - | 40 W/m² | - |
* Rain latest hour (hover to see other rain measurements)
** Current wind speed in m/s (hover to see current wind gust speed)